DLH88H EDDF-LFPG

Flight info

Callsign DLH88H
Flight time N/A
Altitude 24000
Route SOBRA2L/18 SOBRA Y180 DIK UN857 TOLVU/N0389F230 DCT RAPOR DCT VEDUS
Aircraft A321/M-SADE2E3FGIJ1LORWXYZ/HB1

Departure

Time 2026-05-06 14:33
Airport Frankfurt Main Airport (EDDF)

Arrival

Time N/A
Airport Charles de Gaulle International Airport (LFPG)
Time Latitude Longitude Altitude Speed Heading
2026-05-06 14:00 50.04918 8.57082 359 ft 0 kts 98°
2026-05-06 14:01 50.04918 8.57083 361 ft 0 kts 97°
2026-05-06 14:22 50.04915 8.57090 356 ft 1 kts 121°
2026-05-06 14:22 50.04906 8.57095 356 ft 2 kts 162°
2026-05-06 14:22 50.04879 8.57092 358 ft 8 kts 193°
2026-05-06 14:23 50.04809 8.57045 359 ft 12 kts 205°
2026-05-06 14:23 50.04746 8.57000 356 ft 6 kts 205°
2026-05-06 14:23 50.04739 8.56995 356 ft 0 kts 205°
2026-05-06 14:25 50.04738 8.56994 363 ft 1 kts 205°
2026-05-06 14:25 50.04724 8.56985 361 ft 3 kts 205°
2026-05-06 14:25 50.04694 8.56963 359 ft 6 kts 204°
2026-05-06 14:25 50.04645 8.56928 360 ft 10 kts 204°
2026-05-06 14:26 50.04569 8.56897 363 ft 11 kts 193°
2026-05-06 14:26 50.04492 8.56868 359 ft 12 kts 193°
2026-05-06 14:26 50.04437 8.56767 361 ft 14 kts 249°
2026-05-06 14:26 50.04399 8.56608 358 ft 17 kts 249°
2026-05-06 14:27 50.04355 8.56422 363 ft 9 kts 250°
2026-05-06 14:27 50.04343 8.56372 356 ft 0 kts 250°
2026-05-06 14:28 50.04342 8.56369 356 ft 1 kts 250°
2026-05-06 14:28 50.04333 8.56329 360 ft 9 kts 250°
2026-05-06 14:28 50.04303 8.56207 355 ft 14 kts 249°
2026-05-06 14:29 50.04267 8.56056 359 ft 16 kts 249°
2026-05-06 14:29 50.04225 8.55880 360 ft 19 kts 249°
2026-05-06 14:29 50.04177 8.55678 358 ft 21 kts 250°
2026-05-06 14:29 50.04123 8.55455 358 ft 23 kts 249°
2026-05-06 14:30 50.04067 8.55222 361 ft 23 kts 250°
2026-05-06 14:30 50.04010 8.54980 362 ft 24 kts 250°
2026-05-06 14:30 50.03948 8.54722 356 ft 27 kts 249°
2026-05-06 14:30 50.03880 8.54438 356 ft 29 kts 250°
2026-05-06 14:31 50.03786 8.54167 349 ft 29 kts 249°
2026-05-06 14:31 50.03714 8.53867 351 ft 30 kts 249°
2026-05-06 14:31 50.03639 8.53558 336 ft 31 kts 248°
2026-05-06 14:31 50.03562 8.53242 337 ft 32 kts 250°
2026-05-06 14:32 50.03509 8.53021 334 ft 13 kts 250°
2026-05-06 14:32 50.03472 8.52875 332 ft 16 kts 246°
2026-05-06 14:32 50.03434 8.52731 331 ft 16 kts 250°
2026-05-06 14:32 50.03372 8.52595 334 ft 16 kts 193°
2026-05-06 14:33 50.03250 8.52595 334 ft 21 kts 180°
2026-05-06 14:33 50.02850 8.52598 336 ft 99 kts 179°
2026-05-06 14:33 50.01911 8.52608 369 ft 163 kts 181°
2026-05-06 14:33 50.00780 8.52620 1175 ft 161 kts 180°
2026-05-06 14:34 49.99641 8.52677 1904 ft 171 kts 179°
2026-05-06 14:34 49.98375 8.52762 2303 ft 193 kts 179°
2026-05-06 14:34 49.96956 8.52860 2643 ft 215 kts 179°
2026-05-06 14:34 49.95395 8.52966 3083 ft 230 kts 179°
2026-05-06 14:35 49.93786 8.53079 3838 ft 232 kts 179°
2026-05-06 14:35 49.92156 8.53189 4576 ft 236 kts 179°
2026-05-06 14:35 49.90510 8.53297 5342 ft 237 kts 179°
2026-05-06 14:35 49.88869 8.53402 6085 ft 239 kts 179°
2026-05-06 14:36 49.87210 8.53332 6778 ft 242 kts 191°
2026-05-06 14:36 49.85553 8.52557 7167 ft 261 kts 201°
2026-05-06 14:36 49.83799 8.51534 7755 ft 275 kts 201°
2026-05-06 14:36 49.81989 8.50490 8551 ft 281 kts 201°
2026-05-06 14:37 49.80143 8.49437 9398 ft 284 kts 201°
2026-05-06 14:37 49.79515 8.49072 9674 ft 285 kts 203°
2026-05-06 14:37 49.78456 8.48328 9813 ft 296 kts 211°
2026-05-06 14:37 49.76929 8.46070 10089 ft 318 kts 238°
2026-05-06 14:38 49.76155 8.42796 10326 ft 339 kts 262°
2026-05-06 14:38 49.76332 8.39081 10881 ft 350 kts 282°
2026-05-06 14:38 49.76917 8.35401 11611 ft 354 kts 283°
2026-05-06 14:38 49.77515 8.31685 12363 ft 358 kts 282°
2026-05-06 14:39 49.78119 8.27930 13114 ft 361 kts 282°
2026-05-06 14:39 49.78728 8.24139 13843 ft 365 kts 282°
2026-05-06 14:39 49.79342 8.20312 14553 ft 369 kts 282°
2026-05-06 14:39 49.79963 8.16435 15243 ft 373 kts 282°
2026-05-06 14:40 49.80575 8.12522 15917 ft 376 kts 280°
2026-05-06 14:40 49.80830 8.08481 16586 ft 378 kts 272°
2026-05-06 14:40 49.80979 8.04400 17265 ft 382 kts 272°
2026-05-06 14:40 49.81126 8.00271 17905 ft 385 kts 272°
2026-05-06 14:41 49.81269 7.96161 18511 ft 389 kts 272°
2026-05-06 14:41 49.81412 7.91959 19108 ft 392 kts 272°
2026-05-06 14:41 49.81554 7.87735 19705 ft 395 kts 272°
2026-05-06 14:41 49.81692 7.83478 20281 ft 398 kts 272°
2026-05-06 14:42 49.81832 7.79186 20856 ft 401 kts 272°
2026-05-06 14:42 49.81974 7.74844 21422 ft 404 kts 272°
2026-05-06 14:42 49.82116 7.70487 21983 ft 407 kts 272°
2026-05-06 14:42 49.82259 7.66095 22528 ft 410 kts 272°
2026-05-06 14:43 49.82402 7.61665 23059 ft 413 kts 272°
2026-05-06 14:43 49.82542 7.57215 23566 ft 415 kts 272°
2026-05-06 14:43 49.82682 7.52738 23759 ft 416 kts 272°
2026-05-06 14:43 49.82820 7.48275 23805 ft 422 kts 272°
2026-05-06 14:44 49.82958 7.43731 23798 ft 424 kts 272°
2026-05-06 14:44 49.83093 7.39166 23802 ft 424 kts 271°
2026-05-06 14:44 49.83225 7.34602 23806 ft 424 kts 271°
2026-05-06 14:45 49.83483 7.25457 23817 ft 424 kts 271°
2026-05-06 14:45 49.83609 7.20891 23815 ft 424 kts 271°
2026-05-06 14:45 49.83737 7.16322 23810 ft 425 kts 271°
2026-05-06 14:45 49.83863 7.11764 23811 ft 425 kts 271°
2026-05-06 14:46 49.83991 7.07178 23814 ft 425 kts 271°
2026-05-06 14:46 49.84116 7.02613 23808 ft 425 kts 271°
2026-05-06 14:46 49.84236 6.98036 23809 ft 425 kts 271°
2026-05-06 14:46 49.84356 6.93466 23817 ft 425 kts 271°
2026-05-06 14:47 49.84475 6.88900 23809 ft 425 kts 271°
2026-05-06 14:47 49.84592 6.84326 23810 ft 425 kts 271°
2026-05-06 14:47 49.84705 6.79753 23811 ft 424 kts 271°
2026-05-06 14:47 49.84815 6.75175 23817 ft 425 kts 271°
2026-05-06 14:48 49.84922 6.70602 23819 ft 425 kts 271°
2026-05-06 14:48 49.85026 6.66033 23811 ft 424 kts 271°
2026-05-06 14:48 49.85127 6.61461 23811 ft 424 kts 271°
2026-05-06 14:48 49.85224 6.56944 23813 ft 424 kts 271°
2026-05-06 14:49 49.85322 6.52387 23816 ft 423 kts 271°
2026-05-06 14:49 49.85420 6.47831 23812 ft 423 kts 271°
2026-05-06 14:49 49.85519 6.43281 23810 ft 423 kts 271°
2026-05-06 14:49 49.85619 6.38719 23811 ft 423 kts 271°
2026-05-06 14:50 49.85718 6.34161 23808 ft 423 kts 271°
2026-05-06 14:50 49.85815 6.29613 23808 ft 422 kts 270°
2026-05-06 14:50 49.85907 6.25067 23813 ft 422 kts 270°
2026-05-06 14:50 49.85997 6.20524 23817 ft 422 kts 270°
2026-05-06 14:51 49.85936 6.15987 23812 ft 421 kts 263°
2026-05-06 14:51 49.85399 6.11547 23815 ft 419 kts 253°
2026-05-06 14:51 49.84398 6.07311 23817 ft 418 kts 244°
2026-05-06 14:51 49.83144 6.03257 23820 ft 418 kts 244°
2026-05-06 14:52 49.81885 5.99192 23817 ft 418 kts 244°
2026-05-06 14:52 49.80653 5.95110 23821 ft 418 kts 245°
2026-05-06 14:52 49.79454 5.91000 23819 ft 419 kts 245°
2026-05-06 14:52 49.78277 5.86870 23822 ft 419 kts 246°
2026-05-06 14:53 49.77108 5.82744 23822 ft 419 kts 246°
2026-05-06 14:53 49.75937 5.78621 23822 ft 419 kts 246°
2026-05-06 14:53 49.74770 5.74548 23822 ft 419 kts 245°
2026-05-06 14:53 49.74372 5.73169 23824 ft 419 kts 245°